Weather in Birobidgan

Russia / Jewish Autonomous Oblast     48°47′40″N   132°55′18″E
temp.,
°C
wind,
m/s
gust,
m/s
humid.,
%
clouds,
%
prec.,
mm/h
press.,
hPa
HPBL,
m
26 january, wed
wed2601:00−25nw0010092 0.0 10249
04:00−24sw00100100 0.0 10239
07:00−24ssw00100100 0.0 10239
10:00−22ne0098100 0.0 102337
13:00−17se1091100 0.0 1023174
16:00−15sse2290100 0.0 1022184
19:00−21sse1110091 0.0 10239
22:00−23n1110099 0.1 10249
27 january, thu
thu2701:00−25n11100100 0.1 10249
04:00−27nw1110096 0.1 10259
07:00−28nw1110041 0.0 10259
10:00−27wnw119934 0.0 102518
13:00−19sse119131 0.0 1024162
16:00−16se239384 0.0 1022145
19:00−25se1110043 0.0 10229
22:00−27wnw2210087 0.0 102110
28 january, fri
fri2801:00−28w229822 0.0 102010
04:00−29wnw22975 0.0 10209
07:00−30wnw229792 0.0 10189
10:00−22w1291100 0.0 101770
13:00−17wsw1282100 0.0 1015371
16:00−15sse128492 0.0 1014125
19:00−21wnw1195100 0.0 101411
22:00−26wnw22965 0.1 101415
29 january, sat
sat2901:00−27wnw22945 0.0 101315
04:00−30wnw22975 0.0 10139
07:00−32wnw22975 0.0 10139
10:00−29nw11955 0.0 101425
13:00−20sse01805 0.0 1013216
16:00−17sse23855 0.0 1013144
19:00−27sw01995 0.0 101311
22:00−29wnw229912 0.0 101512
30 january, sun
sun3001:00−30wnw22965 0.0 10159
04:00−31wnw11975 0.0 10169
07:00−32wnw11975 0.0 10179
10:00−29nnw11955 0.0 101920
13:00−22se11855 0.0 1019143
16:00−20se11845 0.0 1020120
19:00−28ssw11965 0.0 10229
22:00−30nw111005 0.0 10249